Tracking 28790 objects as of 18-Apr-2024
HD Live streaming from Space Station
objects crossing your sky now

BREEZE-M DEB (TANK)

Track BREEZE-M DEB (TANK) now!


NORAD ID: 42908
Int'l Code: 2017-046B
Perigee: 410.6 km
Apogee: 34,287.8 km
Inclination: 48.7 °
Period: 606.0 minutes
Semi major axis: 23720 km
RCS: Unknown
Launch date: August 16, 2017
Source: Commonwealth of Independent States (former USSR) (CIS)
Launch site: TYURATAM MISSILE AND SPACE COMPLEX (TTMTR)

Note: This is SATELLITE DEBRIS
Your satellite tracking list
Your tracking list is empty




NASA's NSSDC Master Catalog

Two Line Element Set (TLE):
1 42908U 17046B   24107.72447526  .00000203  00000-0  90794-3 0  9999
2 42908  48.6541   1.1245 7141001 245.9150  27.4873  2.37643349 56380
Source of the keplerian elements: AFSPC